Langdon, ND

1:30 AM CDT on April 28, 2017 (GMT -0500)
Langdon

Weather History for KD55 - May, 2013

Change the Weather History Date:

Wednesday, May 22, 2013

  Actual Average (KDVL) Record (KDVL)
Temperature  
Mean Temperature 52 °F -  
Max Temperature 68 °F 71 °F 96 °F (1980)
Min Temperature 35 °F 46 °F 24 °F (1963)
Degree Days  
Heating Degree Days 14    
Growing Degree Days 2 (Base 50)    
Moisture  
Dew Point 41 °F    
Average Humidity 66    
Maximum Humidity 100    
Minimum Humidity 42    
Precipitation  
Precipitation 0.00 in - - ()
Sea Level Pressure  
Sea Level Pressure 30.06 in    
Wind  
Wind Speed 10 mph (NNE)    
Max Wind Speed 22 mph    
Max Gust Speed 30 mph    
Visibility 9 miles    
Events Fog    
Averages and records for this station are not official NWS values.
T = Trace of Precipitation, MM = Missing Value Source: NWS Daily Summary

Daily Weather History Graph

Daily Weather History Graph

Search for Another Location

Airport or City:

Trip Planner

Search our weather history database for the weather conditions in past years. The results will help you decide how hot, cold, wet, or windy it might be!

Date:

Astronomy

May. 22, 2013 Rise Set
Actual Time 5:43 AM CDT 9:17 PM CDT
Civil Twilight 5:04 AM CDT 9:57 PM CDT
Nautical Twilight 4:11 AM CDT 10:50 PM CDT
Astronomical Twilight 2:59 AM CDT 12:03 AM CDT
Moon 6:30 PM CDT (5/22) 4:03 AM CDT (5/22)
Length of Visible Light 16h 52m
Length of Day
15h 34m
Waxing Gibbous, 91% of the Moon is Illuminated
May 22
Waxing Gibbous
May 24
Full
May 31
Last Quarter
Jun 8
New
Jun 16
First Quarter

Hourly Weather History & Observations

Time (CDT) Temp. Windchill Dew Point Humidity Pressure Visibility Wind Dir Wind Speed Gust Speed Precip Events Conditions
12:15 AM 41.0 °F - 41.0 °F 100% 29.97 in 0.5 mi Calm Calm - N/A Fog Fog
12:35 AM 41.0 °F 38.0 °F 41.0 °F 100% 29.98 in 2.0 mi NNW 4.6 mph - N/A   Clear
12:55 AM 39.2 °F 35.0 °F 39.2 °F 100% 29.98 in 1.5 mi NNW 5.8 mph - N/A   Clear
1:15 AM 39.2 °F 35.9 °F 39.2 °F 100% 29.98 in 2.0 mi SSE 4.6 mph - N/A   Clear
1:35 AM 39.2 °F 37.0 °F 39.2 °F 100% 29.98 in 3.0 mi ESE 3.5 mph - N/A   Clear
1:55 AM 39.2 °F - 39.2 °F 100% 29.98 in 0.5 mi Calm Calm - N/A Fog Fog
2:15 AM 37.4 °F - 37.4 °F 100% 29.99 in 0.5 mi Calm Calm - N/A Fog Fog
2:35 AM 37.4 °F 34.9 °F 37.4 °F 100% 29.99 in 3.0 mi NNE 3.5 mph - N/A   Clear
2:55 AM 39.2 °F 37.0 °F 39.2 °F 100% 29.99 in 2.0 mi NNE 3.5 mph - N/A   Clear
3:15 AM 37.4 °F 34.9 °F 37.4 °F 100% 29.99 in 1.5 mi North 3.5 mph - N/A   Clear
3:35 AM 37.4 °F 33.8 °F 37.4 °F 100% 29.99 in 7.0 mi North 4.6 mph - N/A   Clear
3:55 AM 35.6 °F 29.9 °F 35.6 °F 100% 29.99 in 10.0 mi NNE 6.9 mph - N/A   Clear
4:15 AM 35.6 °F 29.9 °F 35.6 °F 100% 29.99 in 10.0 mi NNE 6.9 mph - N/A   Clear
4:35 AM 37.4 °F 30.3 °F 37.4 °F 100% 29.99 in 10.0 mi NNE 10.4 mph - N/A   Clear
4:55 AM 39.2 °F 32.0 °F 35.6 °F 87% 29.99 in 10.0 mi NNE 11.5 mph - N/A   Clear
5:15 AM 39.2 °F 32.0 °F 35.6 °F 87% 29.99 in 10.0 mi NNE 11.5 mph - N/A   Clear
5:35 AM 39.2 °F 32.5 °F 35.6 °F 87% 30.00 in 10.0 mi NNE 10.4 mph - N/A   Clear
5:55 AM 39.2 °F 32.0 °F 35.6 °F 87% 30.00 in 10.0 mi NNE 11.5 mph - N/A   Clear
6:15 AM 39.2 °F 32.0 °F 35.6 °F 87% 30.00 in 10.0 mi NNE 11.5 mph - N/A   Clear
6:35 AM 41.0 °F 34.3 °F 35.6 °F 81% 30.01 in 10.0 mi NNE 11.5 mph - N/A   Clear
6:55 AM 41.0 °F 34.3 °F 35.6 °F 81% 30.02 in 10.0 mi NNE 11.5 mph - N/A   Clear
7:15 AM 42.8 °F 36.6 °F 35.6 °F 76% 30.02 in 10.0 mi NNE 11.5 mph - N/A   Clear
7:35 AM 44.6 °F 38.8 °F 37.4 °F 76% 30.03 in 10.0 mi NNE 11.5 mph - N/A   Clear
7:55 AM 46.4 °F 41.1 °F 37.4 °F 71% 30.03 in 10.0 mi NNE 11.5 mph - N/A   Clear
8:15 AM 48.2 °F - 37.4 °F 66% 30.04 in 10.0 mi NE 11.5 mph - N/A   Clear
8:35 AM 50.0 °F - 37.4 °F 62% 30.04 in 10.0 mi NNE 10.4 mph - N/A   Clear
8:55 AM 51.8 °F - 37.4 °F 58% 30.05 in 10.0 mi NE 10.4 mph - N/A   Clear
9:15 AM 53.6 °F - 37.4 °F 54% 30.05 in 10.0 mi NE 12.7 mph - N/A   Clear
9:35 AM 53.6 °F - 39.2 °F 58% 30.05 in 10.0 mi NNE 11.5 mph - N/A   Clear
9:55 AM 55.4 °F - 37.4 °F 51% 30.05 in 10.0 mi NE 12.7 mph - N/A   Clear
10:15 AM 57.2 °F - 37.4 °F 48% 30.06 in 10.0 mi NE 15.0 mph 20.7 mph N/A   Clear
10:35 AM 57.2 °F - 37.4 °F 48% 30.06 in 10.0 mi NE 15.0 mph 23.0 mph N/A   Clear
10:55 AM 59.0 °F - 37.4 °F 45% 30.06 in 10.0 mi NE 18.4 mph 21.9 mph N/A   Clear
11:15 AM 59.0 °F - 37.4 °F 45% 30.06 in 10.0 mi ENE 17.3 mph 24.2 mph N/A   Clear
11:35 AM 59.0 °F - 37.4 °F 45% 30.06 in 10.0 mi ENE 17.3 mph - N/A   Clear
11:55 AM 60.8 °F - 37.4 °F 42% 30.06 in 10.0 mi NE 19.6 mph 24.2 mph N/A   Clear
12:15 PM 62.6 °F - 39.2 °F 42% 30.07 in 10.0 mi NE 19.6 mph 24.2 mph N/A   Clear
12:35 PM 62.6 °F - 42.8 °F 48% 30.06 in 10.0 mi NE 17.3 mph 23.0 mph N/A   Clear
12:55 PM 62.6 °F - 42.8 °F 48% 30.07 in 10.0 mi NE 18.4 mph 25.3 mph N/A   Clear
1:15 PM 64.4 °F - 44.6 °F 49% 30.06 in 10.0 mi NE 18.4 mph 23.0 mph N/A   Clear
1:35 PM 64.4 °F - 44.6 °F 49% 30.06 in 10.0 mi NE 16.1 mph 24.2 mph N/A   Clear
1:55 PM 64.4 °F - 44.6 °F 49% 30.06 in 10.0 mi NE 16.1 mph 23.0 mph N/A   Clear
2:15 PM 66.2 °F - 44.6 °F 46% 30.06 in 10.0 mi NE 17.3 mph 23.0 mph N/A   Clear
2:35 PM 66.2 °F - 42.8 °F 43% 30.06 in 10.0 mi NE 20.7 mph 26.5 mph N/A   Clear
2:55 PM 68.0 °F - 46.4 °F 46% 30.05 in 10.0 mi NE 19.6 mph 25.3 mph N/A   Clear
3:15 PM 64.4 °F - 48.2 °F 56% 30.06 in 10.0 mi NNE 21.9 mph 27.6 mph N/A   Scattered Clouds
3:35 PM 66.2 °F - 48.2 °F 52% 30.06 in 10.0 mi NNE 19.6 mph 27.6 mph N/A   Scattered Clouds
3:55 PM 66.2 °F - 48.2 °F 52% 30.06 in 10.0 mi NNE 21.9 mph 28.8 mph N/A   Partly Cloudy
4:15 PM 64.4 °F - 48.2 °F 56% 30.06 in 10.0 mi NNE 21.9 mph 28.8 mph N/A   Partly Cloudy
4:35 PM 66.2 °F - 48.2 °F 52% 30.07 in 10.0 mi NNE 19.6 mph 29.9 mph N/A   Scattered Clouds
4:55 PM 66.2 °F - 48.2 °F 52% 30.07 in 10.0 mi NNE 19.6 mph 23.0 mph N/A   Scattered Clouds
5:15 PM 66.2 °F - 46.4 °F 49% 30.08 in 10.0 mi NNE 20.7 mph 25.3 mph N/A   Scattered Clouds
5:35 PM 66.2 °F - 46.4 °F 49% 30.08 in 10.0 mi NNE 20.7 mph 25.3 mph N/A   Scattered Clouds
5:55 PM 66.2 °F - 46.4 °F 49% 30.08 in 10.0 mi NNE 18.4 mph 26.5 mph N/A   Clear
6:15 PM 66.2 °F - 46.4 °F 49% 30.09 in 10.0 mi NNE 19.6 mph 25.3 mph N/A   Clear
6:35 PM 64.4 °F - 44.6 °F 49% 30.09 in 10.0 mi NE 16.1 mph - N/A   Clear
6:55 PM 64.4 °F - 46.4 °F 52% 30.09 in 10.0 mi NNE 21.9 mph 25.3 mph N/A   Partly Cloudy
7:15 PM 64.4 °F - 46.4 °F 52% 30.10 in 10.0 mi NNE 21.9 mph 28.8 mph N/A   Mostly Cloudy
7:35 PM 62.6 °F - 46.4 °F 55% 30.11 in 10.0 mi NNE 18.4 mph - N/A   Partly Cloudy
7:55 PM 62.6 °F - 46.4 °F 55% 30.11 in 10.0 mi NNE 16.1 mph 23.0 mph N/A   Clear
8:15 PM 60.8 °F - 46.4 °F 59% 30.12 in 10.0 mi NNE 16.1 mph 21.9 mph N/A   Clear
8:35 PM 59.0 °F - 46.4 °F 63% 30.13 in 10.0 mi NNE 15.0 mph - N/A   Clear
8:55 PM 59.0 °F - 44.6 °F 59% 30.13 in 10.0 mi NE 17.3 mph - N/A   Clear
9:15 PM 57.2 °F - 42.8 °F 59% 30.14 in 10.0 mi NE 18.4 mph 25.3 mph N/A   Clear
9:35 PM 55.4 °F - 44.6 °F 67% 30.15 in 10.0 mi NNE 17.3 mph 23.0 mph N/A   Clear
9:55 PM 55.4 °F - 42.8 °F 63% 30.16 in 10.0 mi NNE 16.1 mph 21.9 mph N/A   Clear
10:15 PM 55.4 °F - 41.0 °F 58% 30.17 in 10.0 mi NE 18.4 mph - N/A   Clear
10:35 PM 53.6 °F - 41.0 °F 62% 30.17 in 10.0 mi NE 20.7 mph 24.2 mph N/A   Clear
10:55 PM 53.6 °F - 39.2 °F 58% 30.18 in 10.0 mi NE 19.6 mph 25.3 mph N/A   Clear
11:15 PM 51.8 °F - 39.2 °F 62% 30.19 in 10.0 mi NE 18.4 mph 24.2 mph N/A   Clear
11:35 PM 50.0 °F - 39.2 °F 66% 30.19 in 10.0 mi NE 17.3 mph 20.7 mph N/A   Clear
11:55 PM 50.0 °F - 39.2 °F 66% 30.20 in 10.0 mi NE 13.8 mph - N/A   Clear